Regional Weather Roundup
Issued by NWS

Home | Current Version | Previous Version | Text Only | Print | Product List | Glossary On
Versions: 1 2 3 4 5 6 7 8 9 10 11 12 13 14 15 16 17 18 19 20 21 22 23 24 25 26 27 28 29 30 31 32 33 34 35 36 37 38 39 40 41 42 43 44 45 46 47 48 49 50
000
ASUS46 KPQR 181810
RWROR

OREGON REGIONAL WEATHER ROUNDUP
NATIONAL WEATHER SERVICE PORTLAND OR
1100 AM PDT THU SEP 18 2014

NOTE: "FAIR" INDICATES FEW OR NO CLOUDS BELOW 12,000 FEET WITH
NO SIGNIFICANT WEATHER AND/OR OBSTRUCTIONS TO VISIBILITY.

ORZ001>013-181900-
NORTHWEST OREGON


CITY           SKY/WX    TMP DP  RH WIND       PRES   REMARKS
ASTORIA        CLOUDY    61  57  87 SW7       29.85R
6HR MIN TEMP:  57; 6HR MAX TEMP:  63;

NEWPORT        SUNNY     63  59  88 NW5       29.89R FOG
PORTLAND       CLOUDY    63  60  90 CALM      29.86R
6HR MIN TEMP:  61; 6HR MAX TEMP:  64; 6HR PCP:  0.05;

VANCOUVER WA   CLOUDY    62  59  90 SE3       29.86R
6HR MIN TEMP:  61; 6HR MAX TEMP:  63; 6HR PCP:  0.05;

SCAPPOOSE      MOSUNNY   66  60  81 SE6       29.84R
6HR MIN TEMP:  61; 6HR MAX TEMP:  66; 6HR PCP: TRACE;

HILLSBORO      CLOUDY    65  60  84 CALM      29.85R
6HR MIN TEMP:  60; 6HR MAX TEMP:  65; 6HR PCP:  0.01;

AURORA         CLOUDY    62  59  90 SE3       29.86S
6HR MIN TEMP:  60; 6HR MAX TEMP:  62; 6HR PCP:  0.03;

MCMINNVILLE    PTSUNNY   65  58  78 CALM      29.86R
6HR MIN TEMP:  60; 6HR MAX TEMP:  65; 6HR PCP:  0.03;

SALEM          PTSUNNY   64  58  80 SE9       29.85R
6HR MIN TEMP:  61; 6HR MAX TEMP:  64; 6HR PCP:  0.01;

CORVALLIS      CLOUDY    64  57  77 N3        29.88S
EUGENE         CLOUDY    65  55  70 W6        29.87R
6HR MIN TEMP:  53; 6HR MAX TEMP:  66;

$$

ORZ021-028-181900-
SOUTHWEST OREGON


CITY           SKY/WX    TMP DP  RH WIND       PRES   REMARKS
NORTH BEND     PTSUNNY   66  61  82 CALM      29.87R
6HR MIN TEMP:  57; 6HR MAX TEMP:  66; 6HR PCP:  0.21;

BROOKINGS      MOCLDY    70  67  90 CALM      29.84R
ROSEBURG       MOSUNNY   66  58  75 CALM      29.87S
6HR MIN TEMP:  58; 6HR MAX TEMP:  65; 6HR PCP:  0.06;

SEXTON SUMMIT  CLOUDY    59  55  87 CALM      29.94R
6HR MIN TEMP:  51; 6HR MAX TEMP:  60; 6HR PCP:  0.11;

MEDFORD        PTSUNNY   68  55  63 N3        29.87R
6HR MIN TEMP:  61; 6HR MAX TEMP:  68;

$$

ORZ009-041-181900-
COLUMBIA GORGE


CITY           SKY/WX    TMP DP  RH WIND       PRES   REMARKS
TROUTDALE      CLOUDY    63  59  87 S3        29.85R
6HR MIN TEMP:  61; 6HR MAX TEMP:  63; 6HR PCP:  0.05;

THE DALLES     PTSUNNY   72  55  55 NW22G32   29.77R
6HR MIN TEMP:  65; 6HR MAX TEMP:  75;

$$

ORZ029>031-042>050-061>064-181900-
EASTERN OREGON


CITY           SKY/WX    TMP DP  RH WIND       PRES   REMARKS
REDMOND        LGT RAIN  63  53  70 S10G18    29.87S
6HR MIN TEMP:  57; 6HR MAX TEMP:  63; 6HR PCP:  0.03;

BEND           LGT RAIN  61  54  77 S7        29.91S
KLAMATH FALLS  CLOUDY    68  49  50 S12       29.94R
6HR MIN TEMP:  51; 6HR MAX TEMP:  68;

LAKEVIEW       MOSUNNY   72  43  35 SW13G21   29.98R
HERMISTON      PTSUNNY   77  50  38 W10       29.74S
6HR MIN TEMP:  58; 6HR MAX TEMP:  78;

PENDLETON      PTSUNNY   76  42  29 VRB7      29.77S
6HR MIN TEMP:  56; 6HR MAX TEMP:  76;

JOHN DAY       MOCLDY    73  40  30 W6        29.87S
MEACHAM        CLOUDY    71  38  29 CALM      29.87R
6HR MIN TEMP:  40; 6HR MAX TEMP:  75;

LA GRANDE      SUNNY     79  39  24 CALM      29.81S
6HR MIN TEMP:  57; 6HR MAX TEMP:  79;

BAKER CITY     SUNNY     79  38  22 S17G25    29.83F
6HR MIN TEMP:  60; 6HR MAX TEMP:  80;

BURNS          SUNNY     75  41  29 SW14G21   29.90S
6HR MIN TEMP:  56; 6HR MAX TEMP:  75;

ROME             N/A     78  39  24 SW14G23   29.89F
6HR MIN TEMP:  66; 6HR MAX TEMP:  78; 6HR PCP:  0.01;

ONTARIO        MOSUNNY   83  43  24 SW6       29.81S
6HR MIN TEMP:  64; 6HR MAX TEMP:  83; 6HR PCP: TRACE;

$$


USA.gov is the U.S. government's official web portal to all federal, state and local government web resources and services.